Regional Weather Roundup
Issued by NWS Green Bay, WI

Home | Current Version | Previous Version | Text Only | Print | Product List | Glossary On
Versions: 1 2 3 4 5 6 7 8 9 10 11 12 13 14 15 16 17 18 19 20 21 22 23 24 25 26 27 28 29 30 31 32 33 34 35 36 37 38 39 40 41 42 43 44 45 46 47 48 49 50
000
ASUS43 KGRB 240500
RWRGRB

NORTH-CENTRAL AND NORTHEAST WISCONSIN REGIONAL WEATHER ROUNDUP
NATIONAL WEATHER SERVICE GREEN BAY WI
1200 AM CDT SUN JUL 24 2016

WIZ005-009-010>012-018-019-240600-
NORTH CENTRAL WISCONSIN

CITY           SKY/WX    TMP DP  RH WIND       PRES   REMARKS
IRONWOOD       CLOUDY    72  68  88 S7        29.83R
MANITOWISH WTR NOT AVBL
ARBOR VITAE    NOT AVBL
EAGLE RIVER    NOT AVBL
LAND O LAKES   NOT AVBL
RHINELANDER    CLOUDY    69  67  93 NW5       29.90F
PHILLIPS       NOT AVBL
ANTIGO         NOT AVBL
TOMAHAWK       NOT AVBL
MERRILL        NOT AVBL
$$

WIZ013-073-240600-
NORTHEAST WISCONSIN

CITY           SKY/WX    TMP DP  RH WIND       PRES   REMARKS
IRON MOUNTAIN  LGT RAIN  69  65  86 SE5       29.88F
MARINETTE      LGT RAIN  72  70  93 S6        29.89F
$$

WIZ017-030-035>037-045-240600-
CENTRAL WISCONSIN

CITY           SKY/WX    TMP DP  RH WIND       PRES   REMARKS
MEDFORD        NOT AVBL
WAUSAU         CLOUDY    70  68  93 S6        29.86S
MOSINEE        NOT AVBL
MARSHFIELD     TSTM      71  68  90 SE10      29.87R FOG
WISC RAPIDS    LGT RAIN  72  66  81 S5        29.87S
STEVENS POINT  NOT AVBL
WAUPACA        NOT AVBL
SHAWANO        NOT AVBL
CLINTONVILLE   NOT AVBL
WAUTOMA        CLOUDY    71  70  96 SE9       29.87F
$$

WIZ038-039-048-051-240600-
FOX VALLEY

CITY           SKY/WX    TMP DP  RH WIND       PRES   REMARKS
NWS GREEN BAY  CLOUDY    75  74  96 S9        29.87F
APPLETON       NOT AVBL
OSHKOSH        MOCLDY    72  68  87 S14       29.86F
FOND DU LAC    RAIN      73  69  87 S9        29.90R FOG
$$

WIZ022-050-052-240600-
EAST CENTRAL WISCONSIN

CITY           SKY/WX    TMP DP  RH WIND       PRES   REMARKS
EPHRAIM        NOT AVBL
WASHINGTON ISL NOT AVBL
STURGEON BAY   CLOUDY    72  70  93 SE5       29.90S
MANITOWOC      NOT AVBL
SHEBOYGAN      CLOUDY    73  70  90 S12       29.90F
$$

LMZ563-521-522-541>543-240600-
LAKESHORE

STATION/POSITION TIME  TEMP    WIND        PRES    VSBY  WAVE
                       AIR SEA DIR/SP/G                  HT/PER
                 (UTC) (F)     (DEG/KT/KT) (MB)    (MI)  (FT/S)
SHEBOYGAN LKSHOR 0400   71     190/ 16/ 17 1012.6F
KEWAUNEE LKSHORE 0400   63     160/  5/  6 1012.0
NORTHPORT PIER   0400   74     150/  7/ 12 1011.9F
N MID LAKE BUOY  0350   72 71  130/  8/ 10 1011.5F         0
S GREEN BAY BUOY 0400   75 75  180/ 10/ 12   N/A
CHAMBERS ISLAND  0400   71     150/  3/  7 1011.9F
MENOMINEE LKSHOR 0400   73     180/  7/  9 1011.6
$$




USA.gov is the U.S. government's official web portal to all federal, state and local government web resources and services.